Regional Weather Roundup
Issued by NWS

Home | Current Version | Previous Version | Text Only | Print | Product List | Glossary On
Versions: 1 2 3 4 5 6 7 8 9 10 11 12 13 14 15 16 17 18 19 20 21 22 23 24 25 26 27 28 29 30 31 32 33 34 35 36 37 38 39 40 41 42 43 44 45 46 47 48 49 50
000
ASUS43 KTOP 041808
RWRKS

WEATHER ROUNDUP FOR KANSAS
NATIONAL WEATHER SERVICE GOODLAND KS
100 PM CDT MON MAY 04 2015

NOTE:  "FAIR" INDICATES FEW OR NO CLOUDS BELOW 12,000 FEET WITH NO
SIGNIFICANT WEATHER AND/OR OBSTRUCTIONS TO VISIBILITY.

KSZ001>006-013>018-027>032-041>047-041900-
NORTHWEST KANSAS

CITY           SKY/WX    TMP DP  RH WIND       PRES   REMARKS
GOODLAND       LGT RAIN  57  47  69 E9        30.12R
6HR MIN TEMP:  50; 6HR MAX TEMP:  60; 6HR PCP:  0.01;

HAYS           CLOUDY    70  52  52 NW5       30.05S
HILL CITY      CLOUDY    61  53  75 E7        30.08R
6HR MIN TEMP:  57; 6HR MAX TEMP:  61; 6HR PCP: TRACE;

RUSSELL        CLOUDY    67  54  63 N9        30.02F
6HR MIN TEMP:  59; 6HR MAX TEMP:  71; 6HR PCP: TRACE;

$$

KSZ061>065-074>080-084>089-041900-
SOUTHWEST KANSAS

CITY           SKY/WX    TMP DP  RH WIND       PRES   REMARKS
DODGE CITY     MOSUNNY   75  54  47 S10       30.04S
6HR MIN TEMP:  60; 6HR MAX TEMP:  75; 6HR PCP: TRACE;

ELKHART          N/A     74  54  49 SE6         N/A
GARDEN CITY    PTSUNNY   73  52  47 SE13G21   30.04R
6HR MIN TEMP:  57; 6HR MAX TEMP:  73;

GREAT BEND     CLOUDY    77  57  50 S5        30.00F
LIBERAL        MOSUNNY   73  55  53 S13       30.06S
PRATT          PTSUNNY   75  57  53 SE15G21   30.02S
$$

KSZ066>073-081>083-090>101-041900-
SOUTHEAST KANSAS

CITY           SKY/WX    TMP DP  RH WIND       PRES   REMARKS
CHANUTE        MOSUNNY   80  62  54 SW16G22   30.06F
6HR MIN TEMP:  62; 6HR MAX TEMP:  80;

COFFEYVILLE    MOSUNNY   80  64  58 S16G25    30.07F
6HR MIN TEMP:  62; 6HR MAX TEMP:  81;

HUTCHINSON     PTSUNNY   79  60  52 S10       30.02S
6HR MIN TEMP:  60; 6HR MAX TEMP:  80;

MEDICINE LODGE   N/A     76  60  57 SE10G18   30.01F
NEWTON         MOSUNNY   75  59  57 S12       30.05F
PARSONS        MOSUNNY   81  64  56 S12G18    30.08F
6HR MIN TEMP:  62; 6HR MAX TEMP:  81;

WICHITA INTL   PTSUNNY   80  59  48 S13       30.02F
6HR MIN TEMP:  58; 6HR MAX TEMP:  80;

WICHITA JABRA  PTSUNNY   78  59  51 S13G21    30.02F
6HR MIN TEMP:  62; 6HR MAX TEMP:  79;

WICHITA MCCONL PTSUNNY   79  60  52 S14       30.03F
WINFIELD       PTSUNNY   80  63  55 S12       30.05F
6HR MIN TEMP:  60; 6HR MAX TEMP:  80;

$$

KSZ007>012-019>026-033>040-048>060-102>105-041900-
NORTHEAST KANSAS

CITY           SKY/WX    TMP DP  RH WIND       PRES   REMARKS
CONCORDIA      PTSUNNY   74  55  51 S7        30.02F
6HR MIN TEMP:  61; 6HR MAX TEMP:  75; 6HR PCP: TRACE;

EMPORIA        MOSUNNY   81  59  47 S16       30.02F
6HR MIN TEMP:  61; 6HR MAX TEMP:  81;

LAWRENCE       MOSUNNY   80  61  52 SE6       30.03F
6HR MIN TEMP:  58; 6HR MAX TEMP:  80; 6HR PCP:  0.02;

MANHATTAN      MOSUNNY   81  59  47 S3        30.00F
6HR MIN TEMP:  61; 6HR MAX TEMP:  81;

MARYSVILLE     PTSUNNY   73  59  60 SE6       30.02F
OLATHE EXE     MOSUNNY   77  63  61 S8        30.05F
6HR MIN TEMP:  60; 6HR MAX TEMP:  78; 6HR PCP:  0.03;

SALINA         PTSUNNY   80  59  48 S10       30.01S
6HR MIN TEMP:  60; 6HR MAX TEMP:  82;

TOPEKA BILLARD MOSUNNY   80  62  54 S8        30.02F
6HR MIN TEMP:  62; 6HR MAX TEMP:  80; 6HR PCP:  0.01;

TOPEKA FORBES  MOSUNNY   82  62  50 S10       30.02F
6HR MIN TEMP:  62; 6HR MAX TEMP:  83; 6HR PCP:  0.02;

$$


USA.gov is the U.S. government's official web portal to all federal, state and local government web resources and services.